Voltar ao catálogo

FENGYUN 1C DEB

AtivoSSO
NORAD 35167·DEBRIS·🇨🇳 China

Lançado May 10, 1999 de Taiyuan Satellite Launch Center

Loading…

Próximas Passagens (próximas 24 horas)

TLE

AtualizadoSource: Space-Track

Época: Sep 12, 2026, 22:11 UTC

1 35167U 99025DMX 26255.92460862  .00000912  00000-0  26746-3 0  9994
2 35167  98.4669 247.3955 0228571 112.3647 250.1931 14.32079238739436

Acompanhe FENGYUN 1C DEB em tempo real com AllMySat

Download on the App Store